This is the latest recevied weather packets stored in our database for station/object JA0ZJX-13. If no packets are shown the sender has not sent any weather packets the latest 10 day(s).
| Time | Temp. | Humidity | Pressure | Rain* | Wind** | Luminosity | Snow |
|---|---|---|---|---|---|---|---|
| 1777463014 | 10.56° C | 77% | 1017.5 hPa | 0 mm | - | 0 W/m² | - |
| 1777462407 | 10.56° C | 76% | 1017.3 hPa | 0 mm | - | 0 W/m² | - |
| 1777461817 | 10.56° C | 75% | 1017.3 hPa | 0 mm | - | 0 W/m² | - |
| 1777461205 | 10.56° C | 75% | 1017.1 hPa | 0 mm | - | 0 W/m² | - |
| 1777460618 | 10.56° C | 74% | 1016.9 hPa | 0 mm | - | 0 W/m² | - |
| 1777460008 | 11.11° C | 74% | 1016.6 hPa | 0 mm | - | 0 W/m² | - |
| 1777459417 | 11.11° C | 73% | 1016.3 hPa | 0 mm | - | 0 W/m² | - |
| 1777458807 | 11.11° C | 72% | 1016 hPa | 0 mm | - | 0 W/m² | - |
| 1777458219 | 11.67° C | 72% | 1015.9 hPa | 0 mm | - | 0 W/m² | - |
| 1777457608 | 11.67° C | 71% | 1015.8 hPa | 0 mm | - | 0 W/m² | - |
| 1777457019 | 11.67° C | 71% | 1016.4 hPa | 0 mm | - | 0 W/m² | - |
| 1777456407 | 12.22° C | 70% | 1016 hPa | 0 mm | - | 0 W/m² | - |
| 1777455820 | 12.22° C | 69% | 1015.7 hPa | 0 mm | - | 0 W/m² | - |
| 1777455210 | 12.78° C | 68% | 1015.4 hPa | 0 mm | - | 0 W/m² | - |
| 1777454619 | 13.33° C | 67% | 1015.2 hPa | 0 mm | - | 7 W/m² | - |
| 1777454013 | 13.33° C | 65% | 1015.1 hPa | 0 mm | - | 9 W/m² | - |
| 1777453420 | 13.89° C | 64% | 1015.1 hPa | 0 mm | - | 18 W/m² | - |
| 1777452810 | 13.89° C | 64% | 1014.9 hPa | 0 mm | - | 25 W/m² | - |
| 1777452220 | 13.89° C | 63% | 1015.1 hPa | 0 mm | - | 37 W/m² | - |
| 1777451614 | 14.44° C | 62% | 1015 hPa | 0 mm | - | 49 W/m² | - |
| 1777451004 | 15° C | 61% | 1014.8 hPa | 0 mm | - | 51 W/m² | - |
| 1777450412 | 15° C | 60% | 1014.4 hPa | 0 mm | - | 81 W/m² | - |
| 1777449822 | 15° C | 59% | 1014 hPa | 0 mm | - | 90 W/m² | - |
| 1777449215 | 15° C | 58% | 1014.1 hPa | 0 mm | - | 121 W/m² | - |
| 1777448605 | 15.56° C | 57% | 1013.7 hPa | 0 mm | - | 118 W/m² | - |
* Rain latest hour (hover to see other rain measurements)
** Current wind speed in m/s (hover to see current wind gust speed)